Location: Middelsbur
(53.6609°N, 7.5020°E)
Time: 23:50:40
(UTC+00:00)

SPOT 5 - Pass Details

Date: 06 July 2020
Orbit: 622 x 815 km, 98.3° (Epoch: 14 August)

Event Time Altitude Azimuth Distance (km) Brightness Sun altitude
Exits shadow 22:02:25 - 202° (SSW) 2,658 5.4 -11.2°
Reaches altitude 10° 22:03:33 10° 208° (SSW) 2,266 5.1 -11.3°
Maximum altitude 22:07:46 27° 266° (W) 1,365 4.5 -11.5°
Drops below altitude 10° 22:11:51 10° 325° (NW) 2,174 6.7 -11.7°
Sets 22:14:21 0° 337° (NNW) 3,063 8.3 -11.8°
